Location: Raitis
(47.2167°N, 11.3833°E)
Time: 17:03:28
(UTC+00:00)

USA 307 - Pass Details

Date: 03 March 2021
Orbit: 567 x 577 km, 54.0° (Epoch: 16 April)

Event Time Altitude Azimuth Distance (km) Brightness Sun altitude
Rises 18:16:47 0° 280° (W) 2,785 8.4 -13.3°
Reaches altitude 10° 18:19:13 10° 290° (WNW) 1,885 6.8 -13.8°
Maximum altitude 18:23:07 33° 356° (N) 979 4.2 -14.4°
Enters shadow 18:25:53 17° 52° (NE) 1,505 4.6 -14.9°
